Date String (YYYY-MM-DD hh:mm:ss) UTC,Instrument flags,absolute air pressure of the measurement (hPa),sample flow rate (lpm),inlet stack bypass flow (lpm),air temperature of the measurement (°C),ambient temperature measured by the external sensor (°C),aerosol sample conditioner tube jacket temperature (°C),OPC LED temperature (°C),internal box temperature (°C),relative humidity of the measurement (%),span deviation,mass concentration of particles derived from Lorenz-Mie calculation of OPC scattering (μg/m³),mass concentration of particles derived from Lorenz-Mie calculation of OPC scattering (μg/m³),mass concentration of particles derived from Lorenz-Mie calculation of OPC scattering (μg/m³)
DateTimeUTC,F1_M11,P_M11,Q1_M11,Q2_M11,T1_M11,T2_M11,T3_M11,T4_M11,T5_M11,U1_M11,ZSPAN_M11,X0_M11,X2_M11,X1_M11
2024-04-21 18:00:00,SystemResetWarning,0835.5,5.00,000.00,020.9,020.4,000.0,029.2,022.6,026.2,0000.4,0015.57,0011.18,0010.89
2024-04-21 18:01:00,SystemResetWarning,0835.4,5.00,000.00,020.9,020.4,000.0,029.2,022.6,025.7,0000.3,0015.78,0011.18,0010.88
2024-04-21 18:02:00,SystemResetWarning,0835.4,5.00,000.00,020.9,020.4,000.0,029.2,022.6,025.9,0000.3,0015.88,0011.17,0010.87
2024-04-21 18:03:00,SystemResetWarning,0835.4,5.00,000.00,020.9,020.4,000.0,029.2,022.6,027.0,0000.4,0015.79,0011.15,0010.86
2024-04-21 18:04:00,SystemResetWarning,0835.3,5.00,000.00,020.9,020.4,000.0,029.2,022.7,026.2,0000.4,0015.80,0011.14,0010.86
2024-04-21 18:05:00,SystemResetWarning,0835.3,5.00,000.00,020.9,020.4,000.0,029.2,022.7,026.3,0000.4,0015.99,0011.17,0010.86
2024-04-21 18:06:00,SystemResetWarning,0835.2,5.00,000.00,020.9,020.4,000.0,029.2,022.7,026.0,0000.3,0016.84,0011.17,0010.86
2024-04-21 18:07:00,SystemResetWarning,0835.2,5.00,000.00,020.9,020.4,000.0,029.2,022.7,026.9,0000.3,0017.38,0011.19,0010.88
2024-04-21 18:08:00,SystemResetWarning,0835.2,5.00,000.00,020.9,020.4,000.0,029.2,022.7,027.8,0000.4,0017.33,0011.20,0010.86
2024-04-21 18:09:00,SystemResetWarning,0835.3,5.00,000.00,020.9,020.4,000.0,029.3,022.7,027.0,0000.2,0017.36,0011.15,0010.82
2024-04-21 18:10:00,SystemResetWarning,0835.3,5.00,000.00,020.9,020.4,000.0,029.3,022.7,026.6,0000.1,0017.35,0011.11,0010.79
2024-04-21 18:11:00,SystemResetWarning,0835.3,5.00,000.00,021.0,020.4,000.0,029.3,022.7,025.8,0000.2,0017.40,0011.15,0010.81
2024-04-21 18:12:00,SystemResetWarning,0835.2,5.00,000.00,021.0,020.4,000.0,029.3,022.7,025.5,0000.4,0017.27,0011.17,0010.83
2024-04-21 18:13:00,SystemResetWarning,0835.1,5.00,000.00,021.0,020.5,000.0,029.3,022.7,025.8,0000.5,0017.02,0011.17,0010.85
2024-04-21 18:14:00,SystemResetWarning,0835.1,4.99,000.00,021.0,020.5,000.0,029.3,022.8,026.8,0000.6,0017.07,0011.21,0010.87
2024-04-21 18:15:00,SystemResetWarning,0835.2,5.00,000.00,021.0,020.5,000.0,029.3,022.8,027.1,0000.7,0017.00,0011.21,0010.86
2024-04-21 18:16:00,SystemResetWarning,0835.1,5.00,000.00,021.0,020.5,000.0,029.3,022.8,026.1,0000.6,0016.96,0011.20,0010.87
2024-04-21 18:17:00,SystemResetWarning,0835.1,5.00,000.00,021.0,020.5,000.0,029.3,022.8,025.5,0000.7,0016.96,0011.27,0010.90
2024-04-21 18:18:00,SystemResetWarning,0835.1,5.00,000.00,021.0,020.5,000.0,029.3,022.8,025.7,0000.6,0016.39,0011.30,0010.91
2024-04-21 18:19:00,SystemResetWarning,0835.1,5.00,000.00,021.0,020.5,000.0,029.3,022.8,025.1,0000.6,0016.33,0011.26,0010.90
2024-04-21 18:20:00,SystemResetWarning,0835.1,5.00,000.00,021.0,020.5,000.0,029.4,022.8,024.9,0000.7,0016.26,0011.25,0010.90
2024-04-21 18:21:00,SystemResetWarning,0835.1,5.00,000.00,021.1,020.5,000.0,029.4,022.8,025.3,0000.8,0016.20,0011.24,0010.89
2024-04-21 18:22:00,SystemResetWarning,0835.1,5.01,000.00,021.1,020.5,000.0,029.4,022.8,025.5,0000.7,0016.19,0011.23,0010.87
2024-04-21 18:23:00,SystemResetWarning,0835.0,5.00,000.00,021.1,020.5,000.0,029.4,022.8,026.0,0000.7,0016.29,0011.28,0010.91
2024-04-21 18:24:00,SystemResetWarning,0835.0,5.00,000.00,021.1,020.5,000.0,029.4,022.8,025.7,0000.3,0016.48,0011.36,0010.96
2024-04-21 18:25:00,SystemResetWarning,0835.0,5.00,000.00,021.1,020.5,000.0,029.4,022.8,026.6,0000.3,0016.52,0011.39,0011.01
2024-04-21 18:26:00,SystemResetWarning,0835.0,5.00,000.00,021.1,020.5,000.0,029.4,022.8,025.8,0000.3,0016.60,0011.46,0011.08
2024-04-21 18:27:00,SystemResetWarning,0835.0,5.00,000.00,021.1,020.5,000.0,029.4,022.9,026.0,0000.3,0016.61,0011.48,0011.10
2024-04-21 18:28:00,SystemResetWarning,0834.9,5.00,000.00,021.1,020.6,000.0,029.4,022.9,026.5,0000.4,0015.97,0011.45,0011.10
2024-04-21 18:29:00,SystemResetWarning,0834.9,5.00,000.00,021.1,020.6,000.0,029.4,022.9,026.1,0000.5,0015.84,0011.47,0011.14
2024-04-21 18:30:00,SystemResetWarning,0835.3,5.00,000.00,021.1,020.6,000.0,029.4,022.9,026.0,0000.4,0015.83,0011.51,0011.17
2024-04-21 18:31:00,SystemResetWarning,0835.4,5.00,000.00,021.2,020.6,000.0,029.5,022.9,025.8,0000.4,0015.84,0011.58,0011.25
2024-04-21 18:32:00,SystemResetWarning,0835.3,5.00,000.00,021.2,020.7,000.0,029.5,022.9,026.3,0000.2,0016.02,0011.67,0011.34
2024-04-21 18:33:00,SystemResetWarning,0835.3,5.00,000.00,021.2,020.7,000.0,029.5,022.9,027.4,0000.2,0016.08,0011.73,0011.41
2024-04-21 18:34:00,SystemResetWarning,0835.3,4.99,000.00,021.2,020.7,000.0,029.5,023.0,027.3,0000.1,0016.13,0011.76,0011.44
2024-04-21 18:35:00,SystemResetWarning,0835.1,5.00,000.00,021.2,020.7,000.0,029.5,023.0,026.6,0000.2,0016.07,0011.75,0011.44
2024-04-21 18:36:00,SystemResetWarning,0834.8,5.00,000.00,021.2,020.7,000.0,029.5,023.0,026.5,0000.3,0016.04,0011.73,0011.43
2024-04-21 18:37:00,SystemResetWarning,0834.7,5.00,000.00,021.2,020.7,000.0,029.5,023.0,026.2,0000.2,0016.08,0011.70,0011.40
2024-04-21 18:38:00,SystemResetWarning,0834.7,5.00,000.00,021.2,020.8,000.0,029.5,023.0,025.8,0000.1,0015.95,0011.61,0011.33
2024-04-21 18:39:00,SystemResetWarning,0835.2,5.00,000.00,021.2,020.8,000.0,029.5,023.0,025.6,-000.1,0016.06,0011.60,0011.32
2024-04-21 18:40:00,SystemResetWarning,0835.2,5.00,000.00,021.3,020.8,000.0,029.6,023.0,025.5,-000.3,0016.16,0011.55,0011.28
2024-04-21 18:41:00,SystemResetWarning,0834.9,4.99,000.00,021.3,020.7,000.0,029.6,023.0,025.2,-000.1,0016.15,0011.50,0011.22
2024-04-21 18:42:00,SystemResetWarning,0834.9,5.00,000.00,021.3,020.7,000.0,029.6,023.0,024.3,-000.1,0016.18,0011.44,0011.12
2024-04-21 18:43:00,SystemResetWarning,0834.6,5.00,000.00,021.3,020.7,000.0,029.6,023.0,024.0,-000.1,0015.92,0011.26,0010.95
2024-04-21 18:44:00,SystemResetWarning,0834.8,5.00,000.00,021.3,020.7,000.0,029.6,023.1,024.7,-000.0,0015.75,0011.10,0010.78
2024-04-21 18:45:00,SystemResetWarning,0834.8,5.00,000.00,021.3,020.8,000.0,029.6,023.1,024.9,0000.0,0015.56,0010.92,0010.60
2024-04-21 18:46:00,SystemResetWarning,0834.6,4.99,000.00,021.3,020.8,000.0,029.6,023.1,025.4,0000.2,0015.35,0010.78,0010.46
2024-04-21 18:47:00,SystemResetWarning,0834.7,4.99,000.00,021.3,020.8,000.0,029.6,023.1,025.0,0000.2,0015.43,0010.70,0010.36
2024-04-21 18:48:00,SystemResetWarning,0835.0,5.00,000.00,021.3,020.7,000.0,029.7,023.1,024.5,0000.2,0015.42,0010.60,0010.24
2024-04-21 18:49:00,SystemResetWarning,0835.1,5.00,000.00,021.3,020.7,000.0,029.7,023.1,024.8,0000.3,0015.38,0010.54,0010.16
2024-04-21 18:50:00,SystemResetWarning,0834.7,5.01,000.00,021.3,020.7,000.0,029.7,023.1,024.8,0000.4,0015.23,0010.47,0010.09
2024-04-21 18:51:00,SystemResetWarning,0835.1,5.00,000.00,021.3,020.7,000.0,029.7,023.1,023.5,0000.5,0014.88,0010.35,0009.99
2024-04-21 18:52:00,SystemResetWarning,0834.9,5.00,000.00,021.3,020.8,000.0,029.7,023.1,024.2,0000.4,0014.65,0010.17,0009.81
2024-04-21 18:53:00,SystemResetWarning,0834.7,5.00,000.00,021.4,020.8,000.0,029.7,023.1,024.6,0000.4,0014.40,0010.02,0009.68
2024-04-21 18:54:00,SystemResetWarning,0834.5,5.00,000.00,021.4,020.8,000.0,029.7,023.1,023.9,0000.4,0014.32,0009.95,0009.62
2024-04-21 18:55:00,SystemResetWarning,0834.5,5.00,000.00,021.4,020.8,000.0,029.7,023.2,024.7,0000.3,0014.33,0009.95,0009.62
2024-04-21 18:56:00,SystemResetWarning,0834.5,5.00,000.00,021.4,020.9,000.0,029.7,023.2,025.9,0000.3,0014.28,0009.95,0009.63
2024-04-21 18:57:00,SystemResetWarning,0834.5,5.00,000.00,021.4,020.9,000.0,029.7,023.2,025.3,0000.1,0014.28,0009.93,0009.61
2024-04-21 18:58:00,SystemResetWarning,0834.4,5.00,000.00,021.4,020.9,000.0,029.7,023.2,024.9,-000.0,0014.21,0009.91,0009.59
2024-04-21 18:59:00,SystemResetWarning,0834.4,4.99,000.00,021.4,020.9,000.0,029.8,023.2,025.2,-000.1,0013.92,0009.87,0009.56
